Flag for U.S.A. Weather past 2 weeks in Jackson, Mississippi, U.S.A.

Now
45 °F

Clear.


Feels Like: 44 °F
Forecast: 35 / 60 °F
Wind: 3 mph from North

Location: Hawkins Field

Current Time: Jan 30, 2015 at 10:23:18 PM

Latest Report: Jan 30, 2015 at 8:53 PM


Visibility: 10 mi

Pressure: 30.38 "Hg

Humidity: 60%

Dew point: 32 °F

Location of JacksonLocation

Historic Weather in Jackson — Graph

°F

Jackson temperature yesterday

Maximum temperature yesterday: 73 °F (at 12:53 PM)
Minimum temperature yesterday: 46 °F (at 11:53 PM)
Average temperature yesterday: 64 °F

Past Weeks' High & Low Weather Summary

 TemperatureHumidityPressure
High73 °F (Jan 29, 12:53 PM)96% (Jan 23, 1:57 AM)30.47 "Hg (Jan 23, 1:57 AM)
Low27 °F (Jan 16, 6:53 AM)15% (Jan 18, 2:53 PM)29.74 "Hg (Jan 25, 1:53 PM)
Average49 °F62%30.12 "Hg
* Reported Jan 15 8:53 PM — Jan 30 8:53 PM, Jackson, Weather by CustomWeather, © 2014

Note: Actual official high and low records may vary slightly from our data, if they occured in-between our weather recording intervals... More about our weather records

Advertising

Jackson weather history for previous 24 hours

 ConditionsComfort  
Time TempWeatherWind HumidityBarometerVisibility
8:53 PM
Jan 30
45 °FClear.3 mph60%30.38 "Hg10 mi
7:53 PM46 °FClear.5 mph58%30.38 "Hg10 mi
6:53 PM48 °FClear.5 mph54%30.37 "Hg10 mi
5:53 PM52 °FClear.3 mph40%30.36 "Hg10 mi
4:53 PM55 °FSunny.6 mph34%30.34 "Hg10 mi
3:53 PM56 °FSunny.9 mph32%30.35 "Hg10 mi
2:53 PM57 °FSunny.8 mph29%30.34 "Hg10 mi
1:53 PM56 °FSunny.9 mph32%30.36 "Hg10 mi
12:53 PM54 °FSunny.9 mph37%30.39 "Hg10 mi
11:53 AM51 °FSunny.6 mph42%30.41 "Hg10 mi
10:53 AM48 °FSunny.7 mph48%30.45 "Hg10 mi
9:53 AM46 °FSunny.10 mph51%30.47 "Hg10 mi
8:53 AM44 °FSunny.12 mph55%30.46 "Hg10 mi
7:53 AM40 °FSunny.6 mph68%30.44 "Hg10 mi
6:53 AM38 °FClear.6 mph73%30.42 "Hg10 mi
5:53 AM39 °FClear.6 mph70%30.40 "Hg10 mi
4:53 AM40 °FClear.6 mph73%30.37 "Hg10 mi
3:53 AM40 °FClear.5 mph73%30.35 "Hg10 mi
2:53 AM41 °FClear.6 mph70%30.36 "Hg10 mi
1:53 AM42 °FClear.6 mph71%30.36 "Hg10 mi
12:53 AM44 °FClear.9 mph68%30.36 "Hg10 mi
11:53 PM
Jan 29
46 °FClear.12 mph66%30.34 "Hg10 mi
10:53 PM49 °FClear.13 mph66%30.32 "Hg10 mi
Weather by CustomWeather, © 2014

See weather overviewHow to use our weather pages